| time (UTC) | temp F | wind direction | speed knots | gust knots | rain 1hr in | rain 24hr in | rain mn in | humidity % | barometer mb |
| 20260502123038 | 71 | 360 | 4.3 | 8.7 | 0.00 | 0.00 | 0.00 | 67 | 1015.6 |
| 20260502121545 | 71 | 360 | 3.5 | 7.8 | 0.00 | 0.00 | 0.00 | 70 | 1015.7 |
| 20260502114533 | 72 | 360 | 7.0 | 11.3 | 0.00 | 0.00 | 0.00 | 68 | 1016.1 |
| 20260502113029 | 71 | 360 | 7.8 | 13.0 | 0.00 | 0.00 | 0.00 | 69 | 1016.2 |
| 20260502111529 | 71 | 360 | 5.2 | 12.2 | 0.00 | 0.00 | 0.00 | 70 | 1016.3 |
| 20260502110028 | 71 | 360 | 6.1 | 11.3 | 0.00 | 0.00 | 0.00 | 72 | 1016.4 |
| 20260502104523 | 68 | 360 | 7.0 | 12.2 | 0.00 | 0.00 | 0.00 | 74 | 1016.6 |
| 20260502103021 | 69 | 360 | 7.0 | 10.4 | 0.00 | 0.00 | 0.00 | 73 | 1016.8 |
| 20260502101534 | 69 | 360 | 5.2 | 11.3 | 0.00 | 0.00 | 0.00 | 74 | 1016.9 |
| 20260502091510 | 67 | 360 | 5.2 | 9.6 | 0.00 | 0.00 | 0.00 | 74 | 1017.4 |
| 20260502070042 | 59 | 360 | 9.6 | 14.8 | 0.00 | 0.00 | 0.00 | 79 | 1018.3 |
| 20260502064540 | 58 | 360 | 7.8 | 13.0 | 0.00 | 0.00 | 0.00 | 79 | 1018.4 |
| 20260502063037 | 58 | 360 | 7.8 | 13.9 | 0.00 | 0.00 | 0.00 | 79 | 1018.5 |
| 20260502061534 | 58 | 360 | 7.8 | 13.0 | 0.00 | 0.00 | 0.00 | 79 | 1018.6 |
| 20260502060033 | 58 | 360 | 7.8 | 13.0 | 0.00 | 0.00 | 0.00 | 79 | 1018.6 |
| 20260502054530 | 57 | 360 | 8.7 | 13.0 | 0.00 | 0.00 | 0.00 | 79 | 1018.8 |
| 20260502053027 | 56 | 360 | 7.8 | 13.9 | 0.00 | 0.00 | 0.00 | 80 | 1018.9 |
| 20260502051529 | 56 | 360 | 7.0 | 12.2 | 0.00 | 0.00 | 0.00 | 81 | 1019.1 |
| 20260502050034 | 55 | 360 | 7.8 | 12.2 | 0.00 | 0.00 | 0.00 | 80 | 1019.2 |
| 20260502044522 | 54 | 360 | 7.0 | 11.3 | 0.00 | 0.00 | 0.00 | 81 | 1019.4 |
| 20260502043021 | 54 | 360 | 7.8 | 13.0 | 0.00 | 0.00 | 0.00 | 82 | 1019.5 |
| 20260502041522 | 53 | 360 | 7.0 | 11.3 | 0.00 | 0.00 | 0.00 | 82 | 1019.5 |
| 20260502040018 | 53 | 113 | 7.8 | 14.8 | 0.00 | 0.00 | 0.00 | 82 | 1019.7 |
| 20260502034517 | 53 | 360 | 7.8 | 12.2 | 0.00 | 0.00 | 0.00 | 83 | 1019.7 |
| 20260502033014 | 53 | 360 | 7.0 | 12.2 | 0.00 | 0.00 | 0.00 | 83 | 1019.9 |
| 20260502031513 | 53 | 360 | 6.1 | 9.6 | 0.00 | 0.00 | 0.00 | 83 | 1020.1 |
| 20260502030012 | 52 | 360 | 6.1 | 11.3 | 0.00 | 0.00 | 0.00 | 83 | 1020.3 |
| 20260502024510 | 52 | 360 | 7.8 | 11.3 | 0.00 | 0.00 | 0.00 | 84 | 1020.4 |
| 20260502023015 | 49 | 360 | 6.1 | 11.3 | 0.00 | 0.00 | 0.00 | 88 | 1020.7 |
| 20260502021506 | 46 | 360 | 3.5 | 7.0 | 0.00 | 0.00 | 0.00 | 90 | 1020.8 |
| 20260502020003 | 47 | 360 | 2.6 | 7.0 | 0.00 | 0.00 | 0.00 | 89 | 1021.0 |
| 20260502014600 | 48 | 360 | 2.6 | 9.6 | 0.00 | 0.00 | 0.00 | 88 | 1021.1 |
| 20260502013059 | 49 | 360 | 2.6 | 8.7 | 0.00 | 0.00 | 0.00 | 86 | 1021.2 |
| 20260502011551 | 52 | 360 | 1.7 | 9.6 | 0.00 | 0.00 | 0.00 | 82 | 1021.4 |
| 20260502010053 | 53 | 360 | 5.2 | 9.6 | 0.00 | 0.00 | 0.00 | 80 | 1021.6 |
| 20260502004545 | 54 | 360 | 4.3 | 9.6 | 0.00 | 0.00 | 0.00 | 80 | 1021.8 |
| 20260502003042 | 54 | 360 | 5.2 | 8.7 | 0.00 | 0.00 | 0.00 | 79 | 1021.9 |
| 20260502001541 | 54 | 360 | 5.2 | 9.6 | 0.00 | 0.00 | 0.00 | 79 | 1021.9 |
| 20260502000039 | 54 | 360 | 6.1 | 9.6 | 0.00 | 0.00 | 0.00 | 79 | 1022.0 |
| 20260501234537 | 54 | 360 | 6.1 | 9.6 | 0.00 | 0.00 | 0.00 | 81 | 1022.1 |
| 20260501233034 | 55 | 360 | 6.1 | 8.7 | 0.00 | 0.00 | 0.00 | 79 | 1022.2 |
| 20260501231549 | 55 | 360 | 4.3 | 7.8 | 0.00 | 0.00 | 0.00 | 77 | 1022.3 |
| 20260501230031 | 55 | 360 | 3.5 | 8.7 | 0.00 | 0.00 | 0.00 | 76 | 1022.3 |
| 20260501224529 | 55 | 360 | 5.2 | 8.7 | 0.00 | 0.00 | 0.00 | 76 | 1022.5 |
| 20260501223042 | 56 | 360 | 6.1 | 9.6 | 0.00 | 0.00 | 0.00 | 77 | 1022.6 |
| 20260501221525 | 55 | 117 | 5.2 | 7.8 | 0.00 | 0.00 | 0.00 | 80 | 1022.8 |
| 20260501220020 | 55 | 113 | 4.3 | 8.7 | 0.00 | 0.00 | 0.00 | 80 | 1022.9 |
| 20260501214518 | 55 | 360 | 6.1 | 7.8 | 0.00 | 0.00 | 0.00 | 80 | 1022.9 |
| 20260501213016 | 55 | 118 | 5.2 | 8.7 | 0.00 | 0.00 | 0.00 | 78 | 1023.1 |
| 20260501211516 | 56 | 101 | 6.1 | 10.4 | 0.00 | 0.00 | 0.00 | 77 | 1023.2 |
| 20260501210015 | 54 | 99 | 6.1 | 9.6 | 0.00 | 0.00 | 0.00 | 79 | 1023.2 |
| 20260501204631 | 52 | 102 | 3.5 | 7.0 | 0.00 | 0.00 | 0.00 | 80 | 1023.4 |
| 20260501203011 | 51 | 103 | 4.3 | 7.0 | 0.00 | 0.00 | 0.00 | 83 | 1023.4 |
| 20260501201510 | 51 | 360 | 1.7 | 5.2 | 0.00 | 0.00 | 0.00 | 86 | 1023.6 |
| 20260501200009 | 51 | 360 | 0.0 | 3.5 | 0.00 | 0.00 | 0.00 | 86 | 1023.7 |
| 20260501194509 | 52 | 360 | 0.9 | 3.5 | 0.00 | 0.00 | 0.00 | 86 | 1023.7 |
| 20260501193007 | 54 | 360 | 0.9 | 2.6 | 0.00 | 0.00 | 0.00 | 84 | 1023.9 |
| 20260501191506 | 56 | 360 | 1.7 | 3.5 | 0.00 | 0.00 | 0.00 | 82 | 1024.0 |
| 20260501190011 | 57 | 360 | 1.7 | 2.6 | 0.00 | 0.00 | 0.00 | 77 | 1024.0 |
| 20260501184505 | 60 | 360 | 0.0 | 0.9 | 0.00 | 0.00 | 0.00 | 74 | 1024.0 |
| 20260501183006 | 63 | 360 | 0.0 | 0.9 | 0.00 | 0.00 | 0.00 | 69 | 1024.0 |
| 20260501181503 | 67 | 360 | 0.0 | 0.0 | 0.00 | 0.00 | 0.00 | 64 | 1024.0 |
| 20260501180004 | 68 | 360 | 0.0 | 0.0 | 0.00 | 0.00 | 0.00 | 61 | 1024.0 |
| 20260501174501 | 68 | 360 | 0.0 | 0.9 | 0.00 | 0.00 | 0.00 | 63 | 1024.1 |
| 20260501173059 | 68 | 360 | 0.0 | 0.9 | 0.00 | 0.00 | 0.00 | 64 | 1024.3 |
| 20260501171557 | 68 | 360 | 0.0 | 0.9 | 0.00 | 0.00 | 0.00 | 64 | 1024.5 |
| 20260501170054 | 66 | 360 | 0.0 | 0.9 | 0.00 | 0.00 | 0.00 | 67 | 1024.7 |
| 20260501164551 | 65 | 360 | 0.0 | 1.7 | 0.00 | 0.00 | 0.00 | 69 | 1024.9 |
| 20260501163047 | 65 | 360 | 0.0 | 1.7 | 0.00 | 0.00 | 0.00 | 70 | 1025.1 |
| 20260501161547 | 64 | 360 | 0.0 | 2.6 | 0.00 | 0.00 | 0.00 | 70 | 1025.2 |
| 20260501160048 | 63 | 360 | 0.0 | 3.5 | 0.00 | 0.00 | 0.00 | 70 | 1025.4 |
| 20260501154540 | 63 | 360 | 0.9 | 3.5 | 0.00 | 0.00 | 0.00 | 70 | 1025.8 |
| 20260501153035 | 62 | 360 | 0.0 | 2.6 | 0.00 | 0.00 | 0.00 | 68 | 1026.0 |
| 20260501151531 | 61 | 360 | 0.9 | 2.6 | 0.00 | 0.00 | 0.00 | 61 | 1026.2 |
| 20260501150032 | 61 | 360 | 0.9 | 2.6 | 0.00 | 0.00 | 0.00 | 60 | 1026.3 |
| 20260501144523 | 61 | 360 | 1.7 | 4.3 | 0.00 | 0.00 | 0.00 | 63 | 1026.5 |
| 20260501143021 | 60 | 360 | 0.9 | 3.5 | 0.00 | 0.00 | 0.00 | 64 | 1026.7 |
| 20260501141518 | 60 | 360 | 0.9 | 3.5 | 0.00 | 0.00 | 0.00 | 65 | 1026.9 |
| 20260501140016 | 59 | 360 | 0.9 | 4.3 | 0.00 | 0.00 | 0.00 | 67 | 1027.0 |
| 20260501134513 | 60 | 360 | 1.7 | 4.3 | 0.00 | 0.00 | 0.00 | 66 | 1027.0 |
| 20260501133011 | 60 | 360 | 1.7 | 4.3 | 0.00 | 0.00 | 0.00 | 67 | 1027.2 |